Showing default

COSMOS 1694, 16142

Orbit data source: Space-Track

COSMOS 1694, 16142 is a payload satellite owned by GUKOS (CIS) in LEO that was launched on Wed, 09 Oct 1985 UTC via a TSIKLON-3 launch vehicle from the Plesetsk Missile And Space Complex (PKMTR). Payload-class satellites include a variety of spacecraft equipped with specific instruments for various scientific and technological missions. These include communications satellites like Starlink; space stations such as the ISS; scientific satellites like the Hubble; Earth observation satellites from companies like Planet Labs, Umbra, and HawkEye 360; GPS; miniature CubeSats for education and research; and military/defense satellites.

Loading next visibility...
Identifier
16142, 1985-094E
Orbit
LEO
Country
Flag of CISCIS
Related business
Manufacturer
NPO PM
Mission
Spacecraft
Bus & Motor
STRELA-3, Unknown motor
Mass
225 kg wet, 225 kg dry
Launch date (UTC)
1985-10-09 (41 years ago)
Launch vehicle
TSIKLON-3
Launch site
Plesetsk Missile And Space Complex (PKMTR)
Object type
Payload
Rocket body
Debris
Shape & HBR
Unknown
Radar Cross Section
Medium (>0.1 m² and <1 m²)

Expand to show TLE details & history
Last TLE update: 15 hours ago

TLE from 15 hours ago
0 COSMOS 1694
1 16142U 85094E   26126.89098919  .00000009  00000-0 -68954-5 0  9997
2 16142  82.6052 288.5597 0011879 156.9415 330.1015 12.63684378871445
Epoch: 2026-05-06T21:23Z
TLE epoch observation values (Epoch: 2026-05-06T21:23:01.466Z)
Latitude
52.48874°
Longitude
-86.62658°
Altitude
1,408.218 km
Speed
7.165 km/s
True Right ascension
06h 35m 29s
True Declination
52° 20' 11"
Sunlit
Object was in daylight at epoch
Visualization orbit readout
Latitude
Unknown
Longitude
Unknown
Altitude
Unknown
Speed
Unknown
Apparent Right ascension
Unknown
Apparent Declination
Unknown
Sunlit
N/A
Visualization observer readout
Local Sidereal Time
20:43:55
Azimuth
Unknown
Elevation
Unknown
Doppler factor
Unknown
Orbital elements
Apogee altitude
1,414.337 km
Perigee altitude
1,395.846 km
Semi-major axis
7,783.229 km
Eccentricity
0.00119
Inclination
82.6052°
RAAN
288.5597°
Arg. of periapsis
156.9415°
True anomaly
330.03356°
Mean anomaly
330.1015°
Eccentric anomaly
330.06754°
Mean motion
3.16085 °/min
Orbital period
113.89 mins
BSTAR
-0.0000068954
Loading maneuver chart data...
Computing Atmospheric mass density...
Loading historical data...
Loading historical data...
Loading historical data...
Loading historical data...
Loading historical data...
Loading historical data...
Loading historical data...

Documentation

Showing up to 5 results
|